1494162000.26,37353,16.5,73056.0,5.35,-0.53,-0.41,0,*7C
1494162001.49,37354,16.5,73052.8,5.35,-0.89,-0.73,0,*7D
1494162002.7,37355,16.5,73052.3,5.37,-0.89,-0.77,0,*7A
1494162003.88,37356,16.5,73052.8,5.37,-0.69,-0.61,0,*70
1494162005.07,37357,16.5,73056.3,5.41,-0.33,-0.23,0,*79
1494162006.25,37358,16.5,73054.0,5.41,-0.81,-0.81,0,*77
1494162007.43,37359,16.5,73054.0,5.41,-0.81,-0.81,0,*76
1494162008.62,37360,16.5,73056.5,5.41,-0.69,-0.73,0,*77
1494162009.79,37361,16.56,73056.5,5.41,-0.45,-0.45,0,*7D
1494162010.97,37362,16.5,73056.0,5.41,-0.41,-0.29,0,*70
1494162012.18,37363,16.56,73056.8,5.43,0.05,0.25,0,*4F
1494162013.36,37364,16.5,73054.0,5.41,-0.19,-0.03,0,*43
1494162014.56,37365,16.56,73056.0,5.43,-0.19,-0.03,0,*40
1494162015.76,37366,16.5,73058.8,5.43,-0.07,-0.03,0,*7C
1494162016.94,37367,16.5,73058.5,5.49,-1.71,-1.75,0,*77
1494162018.17,37368,16.5,73052.8,5.43,-4.73,-4.99,0,*72
1494162019.39,37369,16.5,73050.3,5.37,-6.93,-7.15,0,*7B
1494162020.64,37370,16.5,73054.3,5.29,-5.93,-5.89,0,*78
1494162021.85,37371,16.5,73048.8,5.25,-3.39,-3.47,0,*77
1494162023.1,37372,16.5,73054.8,5.21,-3.55,-3.67,0,*78
1494162024.34,37373,16.56,73058.0,5.19,-5.77,-5.93,0,*79
1494162025.53,37374,16.5,73050.3,5.15,-6.85,-6.85,0,*78
1494162026.8,37375,16.5,73048.8,5.09,-5.23,-5.27,0,*70
1494162027.98,37376,16.5,73044.8,5.07,-4.99,-4.99,0,*79
1494162029.19,37377,16.5,73048.0,5.01,-4.49,-4.53,0,*75
1494162030.43,37378,16.56,73052.8,4.97,-3.71,-3.79,0,*77
1494162031.62,37379,16.56,73054.3,4.95,-4.09,-3.95,0,*7E
1494162032.84,37380,16.5,73054.3,4.93,-3.11,-3.19,0,*74
1494162034.06,37381,16.5,73056.0,4.93,-3.19,-3.19,0,*7D
1494162035.27,37382,16.5,73056.5,4.93,-3.19,-3.19,0,*7E
1494162036.46,37383,16.56,73056.0,4.89,-2.99,-2.99,0,*74
1494162037.72,37384,16.5,73054.3,4.91,-2.55,-2.55,0,*7A
1494162038.93,37385,16.56,73050.8,4.91,-2.83,-2.83,0,*7B
1494162040.17,37386,16.5,73040.3,4.89,-2.51,-2.51,0,*71
1494162041.35,37387,16.5,73044.3,4.89,-2.99,-2.91,0,*78
1494162042.57,37388,16.5,73046.3,4.87,-3.39,-3.39,0,*71
1494162043.81,37389,16.5,73044.5,4.85,-2.75,-2.75,0,*72
1494162044.99,37390,16.5,73050.0,4.85,-3.07,-3.07,0,*7A
1494162046.19,37391,16.5,73052.0,4.85,-4.21,-4.33,0,*78
1494162047.42,37392,16.5,73048.8,4.79,-4.77,-4.99,0,*7B
1494162048.63,37393,16.5,73044.3,4.75,-4.45,-4.53,0,*71
1494162049.87,37394,16.5,73048.5,4.75,-6.09,-6.23,0,*79
1494162051.14,37395,16.56,73046.3,4.67,-5.15,-5.27,0,*72
1494162052.39,37396,16.5,73042.8,4.65,-5.07,-5.11,0,*75
1494162053.58,37397,16.56,73046.8,4.61,-4.49,-4.61,0,*7D
1494162054.79,37398,16.5,73044.8,4.57,-5.47,-5.65,0,*7D
1494162055.99,37399,16.5,73044.5,4.53,-5.47,-5.55,0,*7B
1494162057.23,37400,16.5,73038.8,4.53,-5.11,-5.31,0,*7D
1494162058.43,37401,16.5,73038.8,4.49,-3.95,-3.91,0,*71
1494162059.65,37402,16.5,73040.8,4.47,-4.33,-4.37,0,*7C
1494162060.84,37403,16.5,73040.0,4.45,-3.11,-2.99,0,*7A
1494162062.03,37404,16.56,73046.8,4.45,-2.87,-2.87,0,*7C
1494162063.26,37405,16.5,73040.0,4.41,-3.55,-3.63,0,*7C
1494162064.47,37406,16.5,73034.3,4.43,-3.19,-3.19,0,*78
1494162065.65,37407,16.56,73032.0,4.41,-2.87,-2.91,0,*7C
1494162066.83,37408,16.56,73032.0,4.41,-2.23,-2.27,0,*70
1494162068.07,37409,16.56,73034.5,4.41,-1.91,-1.91,0,*75
1494162069.31,37410,16.56,73034.8,4.41,-2.51,-2.59,0,*75
1494162070.49,37411,16.5,73032.3,4.41,-2.79,-2.87,0,*7D
1494162071.7,37412,16.56,73038.0,4.41,-2.67,-2.79,0,*70
1494162072.95,37413,16.5,73034.5,4.41,-2.47,-2.47,0,*7E
1494162074.13,37414,16.5,73038.8,4.41,-2.35,-2.35,0,*79
1494162075.35,37415,16.56,73042.3,4.41,-2.15,-2.03,0,*7F
1494162076.55,37416,16.5,73038.0,4.39,-2.79,-2.79,0,*74
1494162077.76,37417,16.5,73042.3,4.35,-1.67,-1.51,0,*7C
1494162079.03,37418,16.5,73040.0,4.39,-1.39,-1.39,0,*7A
1494162080.24,37419,16.5,73046.3,4.39,-1.55,-1.63,0,*7E
1494162081.44,37420,16.5,73046.8,4.41,-1.29,-1.29,0,*7E
1494162082.67,37421,16.5,73044.8,4.41,-1.01,-0.97,0,*41
1494162083.91,37422,16.5,73042.3,4.43,-0.93,-0.85,0,*79
1494162085.14,37423,16.5,73046.3,4.41,-0.89,-1.01,0,*4C
1494162086.36,37424,16.5,73044.3,4.41,-1.47,-1.51,0,*7D
1494162087.57,37425,16.5,73044.3,4.43,-1.67,-1.67,0,*79
1494162088.82,37426,16.56,73046.5,4.41,-1.39,-1.35,0,*74
1494162090.03,37427,16.5,73046.8,4.43,-1.25,-1.33,0,*7C
1494162091.27,37428,16.5,73042.3,4.41,-1.99,-2.11,0,*75
1494162092.53,37429,16.56,73040.5,4.43,-1.47,-1.43,0,*71
1494162093.8,37430,16.5,73034.5,4.43,-1.35,-1.43,0,*7C
1494162095.04,37431,16.5,73038.0,4.41,-1.47,-1.39,0,*77
1494162096.22,37432,16.56,73042.0,4.41,-1.59,-1.55,0,*71
1494162097.48,37433,16.5,73044.5,4.43,-1.43,-1.43,0,*7E
1494162098.72,37434,16.5,73044.3,4.43,-1.43,-1.33,0,*7E
1494162099.95,37435,16.5,73042.8,4.43,-1.21,-1.13,0,*79
1494162101.2,37436,16.5,73040.0,4.43,-0.93,-0.93,0,*7B
1494162102.43,37437,16.5,73044.0,4.43,-1.75,-1.95,0,*74
1494162103.68,37438,16.5,73042.8,4.43,-1.87,-1.95,0,*76
1494162104.9,37439,16.56,73036.5,4.43,-1.67,-1.67,0,*74
1494162106.14,37440,16.5,73036.8,4.41,-1.87,-1.91,0,*7F
1494162107.32,37441,16.5,73038.0,4.41,-1.51,-1.51,0,*79
1494162108.51,37442,16.56,73046.3,4.41,-1.25,-1.17,0,*7B
1494162109.68,37443,16.5,73040.8,4.41,-0.65,-0.65,0,*7B
1494162110.89,37444,16.56,73044.5,4.43,-0.73,-0.73,0,*7E
1494162112.15,37445,16.5,73042.0,4.43,-0.97,-1.01,0,*41
1494162113.35,37446,16.5,73048.8,4.43,-0.61,-0.73,0,*7F
1494162114.6,37447,16.5,73046.0,4.43,-1.09,-1.13,0,*76
1494162115.83,37448,16.56,73046.8,4.45,-0.93,-0.97,0,*70
1494162117.04,37449,16.5,73044.3,4.43,-0.81,-0.73,0,*7E
1494162118.22,37450,16.5,73044.5,4.45,-0.11,-0.07,0,*4A
1494162119.44,37451,16.56,73046.0,4.47,-0.29,-0.23,0,*74
1494162120.65,37452,16.5,73040.8,4.47,-0.11,-0.07,0,*4A
1494162121.82,37453,16.5,73046.0,4.49,-0.03,-0.03,0,*72
1494162123.0,37454,16.5,73046.0,4.49,-0.57,-0.69,0,*78
1494162124.2,37455,16.56,73044.8,4.51,-0.15,-0.03,0,*4A
1494162125.41,37456,16.5,73046.0,4.51,-0.19,-0.15,0,*72
1494162126.6,37457,16.5,73046.0,4.55,-0.03,0.01,0,*54
1494162127.83,37458,16.5,73042.3,4.55,-0.15,-0.23,0,*71
1494162129.01,37459,16.5,73046.5,4.55,0.01,0.05,0,*71
1494162130.21,37460,16.5,73044.5,4.55,0.01,-0.11,0,*63
1494162131.39,37461,16.5,73046.0,4.61,-0.53,-0.65,0,*7C
1494162132.62,37462,16.5,73050.8,4.57,-1.05,-0.97,0,*45
1494162133.81,37463,16.5,73046.0,4.57,-0.33,-0.41,0,*7B
1494162135.03,37464,16.5,73044.3,4.57,-0.97,-0.97,0,*79
1494162136.22,37465,16.5,73044.3,4.61,-0.45,-0.33,0,*7C
1494162137.4,37466,16.5,73042.3,4.61,-0.41,-0.29,0,*70
1494162138.59,37467,16.56,73042.0,4.61,0.09,0.17,0,*40
1494162139.81,37468,16.5,73040.5,4.61,0.29,0.29,0,*70
1494162140.99,37469,16.5,73042.8,4.61,-0.11,-0.07,0,*46
1494162142.19,37470,16.56,73044.0,4.63,-0.07,-0.07,0,*7B
1494162143.35,37471,16.56,73044.0,4.65,-0.03,0.05,0,*57
1494162144.57,37472,16.56,73042.8,4.65,0.21,0.21,0,*7F
1494162145.79,37473,16.56,73044.8,4.69,0.55,0.51,0,*76
1494162146.95,37474,16.5,73042.5,4.69,0.05,0.05,0,*75
1494162148.17,37475,16.5,73044.3,4.69,0.21,0.29,0,*7C
1494162149.38,37476,16.5,73046.5,4.69,0.17,0.21,0,*72
1494162150.6,37477,16.56,73050.0,4.69,0.29,0.29,0,*76
1494162151.76,37478,16.5,73046.0,4.73,0.09,0.09,0,*72
1494162152.94,37479,16.5,73046.0,4.73,-0.15,-0.15,0,*73
1494162154.12,37480,16.5,73048.5,4.73,-0.15,-0.03,0,*42
1494162155.33,37481,16.5,73050.0,4.73,0.21,0.21,0,*74
1494162156.5,37482,16.5,73046.0,4.73,0.05,0.09,0,*7B
1494162157.68,37483,16.5,73048.8,4.73,0.09,0.17,0,*49
1494162158.89,37484,16.56,73048.5,4.75,-0.37,-0.49,0,*7E
1494162160.11,37485,16.56,73050.3,4.75,-0.41,-0.41,0,*76
1494162161.34,37486,16.5,73048.5,4.75,-0.89,-0.81,0,*7D
1494162162.57,37487,16.5,73046.8,4.75,-0.27,-0.29,0,*7A
1494162163.76,37488,16.56,73050.5,4.77,0.13,0.09,0,*42
1494162164.97,37489,16.5,73048.3,4.75,-0.41,-0.41,0,*7A
1494162166.16,37490,16.56,73052.8,4.75,0.09,0.09,0,*72
1494162167.38,37491,16.5,73048.3,4.77,0.25,0.25,0,*71
1494162168.56,37492,16.56,73052.5,4.77,-0.37,-0.33,0,*76
1494162169.75,37493,16.5,73050.0,4.79,0.01,0.05,0,*79
1494162170.99,37494,16.56,73048.0,4.79,0.25,0.17,0,*7B
1494162172.19,37495,16.5,73046.5,4.79,-0.61,-0.69,0,*73
1494162173.42,37496,16.5,73044.3,4.79,0.33,0.41,0,*7D
1494162174.64,37497,16.5,73046.8,4.81,0.29,0.29,0,*7E
1494162175.87,37498,16.5,73048.0,4.79,0.29,0.41,0,*78
1494162177.08,37499,16.56,73052.3,4.81,0.25,0.25,0,*70
1494162178.3,37500,16.56,73052.0,4.81,0.79,0.79,0,*71
1494162179.52,37501,16.5,73044.5,4.87,0.21,0.09,0,*4C
1494162180.73,37502,16.5,73050.0,4.87,0.09,0.17,0,*4A
1494162181.94,37503,16.5,73044.0,4.89,0.59,0.63,0,*73
1494162183.12,37504,16.5,73048.0,4.91,0.43,0.43,0,*74
1494162184.36,37505,16.5,73048.3,4.93,0.63,0.67,0,*73
1494162185.62,37506,16.5,73050.8,4.91,1.13,1.09,0,*7D
1494162186.82,37507,16.5,73048.0,4.93,0.97,0.97,0,*75
1494162188.08,37508,16.5,73046.3,4.97,1.13,1.29,0,*77
1494162189.33,37509,16.56,73050.3,4.97,1.17,1.29,0,*72
1494162190.57,37510,16.56,73050.3,4.99,1.09,1.17,0,*76
1494162191.79,37511,16.5,73046.8,5.01,1.41,1.51,0,*79
1494162193.03,37512,16.5,73048.8,5.03,1.21,1.21,0,*79
1494162194.25,37513,16.56,73050.3,5.07,0.71,0.91,0,*72
1494162195.47,37514,16.5,73050.0,5.09,0.83,1.05,0,*4A
1494162196.7,37515,16.5,73048.3,5.11,1.25,1.29,0,*71
1494162197.9,37516,16.5,73046.3,5.11,-0.37,-0.23,0,*7B
1494162199.13,37517,16.5,73050.8,5.13,0.25,0.25,0,*7D
1494162200.36,37518,16.5,73050.3,5.13,0.67,0.67,0,*72
1494162201.59,37519,16.5,73046.3,5.13,1.01,1.21,0,*71
1494162202.81,37520,16.5,73048.0,5.13,0.97,1.13,0,*44
1494162204.05,37521,16.56,73048.5,5.17,0.71,0.83,0,*71
1494162205.28,37522,16.56,73046.8,5.17,1.01,1.13,0,*7C
1494162206.53,37523,16.5,73044.3,5.17,1.13,1.25,0,*7B
1494162207.79,37524,16.5,73046.3,5.21,1.09,1.33,0,*75
1494162209.0,37525,16.5,73044.5,5.21,0.87,0.97,0,*7C
1494162210.22,37526,16.5,73042.8,5.23,0.83,0.87,0,*78
1494162211.41,37527,16.5,73040.8,5.23,0.87,0.97,0,*7C
1494162212.6,37528,16.5,73040.8,5.25,0.87,0.97,0,*75
1494162213.8,37529,16.56,73046.8,5.25,0.97,1.13,0,*48
1494162215.05,37530,16.5,73044.5,5.31,0.83,0.91,0,*7B
1494162216.29,37531,16.5,73044.5,5.31,0.41,0.51,0,*78
1494162217.5,37532,16.5,73046.5,5.29,0.41,0.51,0,*72
1494162218.75,37533,16.56,73044.5,5.31,0.79,0.83,0,*7E
1494162219.99,37534,16.5,73042.3,5.31,0.55,0.63,0,*79
1494162221.23,37535,16.56,73042.3,5.31,0.41,0.51,0,*7C
1494162222.44,37536,16.56,73042.0,5.33,0.79,0.95,0,*7E
1494162223.69,37537,16.56,73044.0,5.35,0.83,0.83,0,*7B
1494162224.94,37538,16.56,73046.8,5.35,0.55,0.59,0,*78
1494162226.15,37539,16.56,73044.0,5.35,0.43,0.47,0,*71
1494162227.35,37540,16.5,73036.8,5.35,-0.07,-0.03,0,*7F
1494162228.57,37541,16.5,73038.8,5.35,0.09,0.21,0,*40
1494162229.78,37542,16.56,73044.5,5.37,0.17,0.41,0,*78
1494162230.99,37543,16.56,73044.5,5.37,0.25,0.25,0,*7A
1494162232.21,37544,16.5,73040.5,5.37,0.47,0.63,0,*7B
1494162233.41,37545,16.56,73048.0,5.41,0.63,0.67,0,*79
1494162234.63,37546,16.5,73044.3,5.37,0.51,0.63,0,*7E
1494162235.83,37547,16.56,73050.3,5.41,0.63,0.67,0,*7B
1494162237.04,37548,16.56,73050.8,5.41,0.63,0.79,0,*7B
1494162238.26,37549,16.5,73044.8,5.41,-0.93,-0.93,0,*71
1494162239.44,37550,16.5,73040.0,5.41,-0.41,-0.29,0,*77
1494162240.66,37551,16.5,73036.8,5.41,-0.23,-0.23,0,*78
1494162241.89,37552,16.56,73038.5,5.37,-0.27,-0.23,0,*7E
1494162243.06,37553,16.5,73036.3,5.41,-0.11,0.05,0,*62
1494162244.25,37554,16.5,73036.8,5.37,0.05,0.13,0,*4B
1494162245.43,37555,16.5,73038.3,5.41,-0.11,-0.07,0,*4B
1494162246.61,37556,16.5,73038.3,5.37,0.05,0.13,0,*49
1494162247.77,37557,16.5,73042.8,5.41,0.01,0.01,0,*7E
1494162248.95,37558,16.5,73040.5,5.41,-0.53,-0.41,0,*72
1494162250.16,37559,16.5,73042.8,5.37,-0.23,-0.11,0,*70
1494162251.34,37560,16.5,73042.0,5.41,-0.19,-0.15,0,*76
1494162252.52,37561,16.56,73044.0,5.37,-0.73,-0.61,0,*79
1494162253.71,37562,16.5,73044.0,5.37,-0.73,-0.69,0,*72
1494162254.9,37563,16.5,73038.5,5.37,-0.03,0.13,0,*64
1494162256.09,37564,16.5,73042.0,5.37,-0.03,0.17,0,*67
1494162257.31,37565,16.5,73038.0,5.37,0.25,0.29,0,*72
1494162258.53,37566,16.5,73038.5,5.37,-0.27,-0.27,0,*7D
1494162259.72,37567,16.56,73038.8,5.37,0.05,0.13,0,*4B
1494162260.93,37568,16.56,73040.3,5.37,0.37,0.41,0,*72
1494162262.11,37569,16.5,73044.5,5.41,0.09,0.17,0,*4C
1494162263.3,37570,16.5,73050.0,5.37,-0.11,-0.11,0,*7A
1494162264.45,37571,16.56,73054.5,5.41,0.01,0.01,0,*7A
1494162265.63,37572,16.56,73050.0,5.41,-0.45,-0.33,0,*78
1494162266.84,37573,16.5,73042.3,5.35,-0.77,-0.65,0,*78
1494162268.02,37574,16.56,73046.8,5.37,-0.53,-0.37,0,*7C
1494162269.29,37575,16.56,73048.8,5.35,-1.05,-1.01,0,*79
1494162270.5,37576,16.5,73042.0,5.35,-0.77,-0.73,0,*7A
1494162271.7,37577,16.5,73042.0,5.33,-0.37,-0.27,0,*78
1494162272.93,37578,16.5,73042.8,5.35,-0.27,-0.19,0,*7D
1494162274.14,37579,16.56,73044.3,5.33,-0.89,-0.81,0,*7F
1494162275.38,37580,16.5,73040.8,5.33,-1.05,-1.05,0,*71
1494162276.57,37581,16.56,73040.0,5.33,-2.23,-2.23,0,*70
1494162277.76,37582,16.56,73040.5,5.29,-1.29,-1.21,0,*70
1494162278.99,37583,16.56,73042.5,5.29,-1.09,-0.97,0,*4F
1494162280.18,37584,16.5,73042.8,5.29,-0.33,-0.23,0,*7F
1494162281.36,37585,16.56,73044.5,5.29,-0.53,-0.45,0,*78
1494162282.54,37586,16.5,73040.3,5.29,-0.65,-0.65,0,*7C
1494162283.72,37587,16.5,73042.3,5.29,-0.41,-0.33,0,*78
1494162284.9,37588,16.56,73044.3,5.29,-0.57,-0.45,0,*71
1494162286.08,37589,16.56,73042.3,5.29,-0.65,-0.53,0,*76
1494162287.25,37590,16.5,73042.5,5.29,-0.53,-0.45,0,*7C
1494162288.44,37591,16.56,73044.8,5.25,-3.11,-3.11,0,*76
1494162289.63,37592,16.56,73038.5,5.23,-2.35,-2.23,0,*74
1494162290.86,37593,16.56,73034.5,5.23,-1.01,-0.93,0,*48
1494162292.04,37594,16.5,73034.8,5.23,-0.49,-0.41,0,*7D
1494162293.22,37595,16.56,73042.8,5.23,-0.53,-0.53,0,*74
1494162294.44,37596,16.5,73038.8,5.23,-1.39,-1.75,0,*7F
1494162295.62,37597,16.5,73036.0,5.19,-2.31,-2.27,0,*78
1494162296.84,37598,16.56,73044.8,5.19,-1.51,-1.39,0,*7E
1494162298.05,37599,16.5,73042.8,5.17,-1.17,-1.17,0,*7F
1494162299.29,37600,16.5,73042.0,5.15,-1.01,-0.93,0,*44
1494162300.49,37601,16.56,73048.8,5.17,-0.57,-0.53,0,*79
1494162301.7,37602,16.56,73044.8,5.17,-0.81,-0.81,0,*7E
1494162302.92,37603,16.5,73046.0,5.17,-0.15,-0.27,0,*7E
1494162304.15,37604,16.56,73050.3,5.17,0.33,0.41,0,*7D
1494162305.32,37605,16.56,73048.5,5.19,-0.07,-0.03,0,*73
1494162306.56,37606,16.5,73050.8,5.19,-1.09,-1.09,0,*74
1494162307.74,37607,16.5,73050.3,5.15,-0.37,-0.33,0,*7D
1494162308.98,37608,16.56,73048.3,5.17,-1.95,-2.15,0,*7F
1494162310.2,37609,16.5,73040.0,5.17,-1.17,-1.17,0,*75
1494162311.4,37610,16.56,73044.0,5.17,-0.41,-0.29,0,*73
1494162312.63,37611,16.56,73044.5,5.17,-0.23,-0.07,0,*4A
1494162313.83,37612,16.56,73044.3,5.17,-0.15,-0.07,0,*4C
1494162315.06,37613,16.56,73046.0,5.17,0.17,0.21,0,*7B
1494162316.24,37614,16.56,73046.3,5.21,0.01,0.09,0,*74
1494162317.43,37615,16.56,73044.8,5.21,-0.03,0.01,0,*52
1494162318.62,37616,16.56,73048.5,5.19,0.09,0.17,0,*4A
1494162319.85,37617,16.56,73050.5,5.21,0.13,0.21,0,*7E
1494162321.03,37618,16.5,73048.3,5.23,-0.41,-0.49,0,*7A
1494162322.21,37619,16.56,73046.0,5.23,-0.41,-0.29,0,*7D
1494162323.44,37620,16.56,73046.5,5.23,-0.97,-0.85,0,*7A
1494162324.62,37621,16.5,73042.5,5.23,-2.23,-2.35,0,*7F
1494162325.88,37622,16.5,73042.3,5.21,-1.35,-1.35,0,*79
1494162327.12,37623,16.56,73044.5,5.21,-1.87,-1.79,0,*79
1494162328.31,37624,16.56,73044.3,5.21,-0.61,-0.53,0,*7E
1494162329.56,37625,16.5,73044.5,5.19,-2.03,-2.07,0,*71
1494162330.75,37626,16.5,73044.5,5.15,-2.95,-2.83,0,*7D
1494162331.94,37627,16.5,73044.5,5.15,-2.83,-2.83,0,*7B
1494162333.13,37628,16.56,73050.3,5.11,-4.25,-4.25,0,*70
1494162334.33,37629,16.56,73036.0,5.07,-4.21,-4.17,0,*73
1494162335.55,37630,16.5,73028.0,5.01,-3.83,-3.75,0,*71
1494162336.74,37631,16.56,73028.8,4.99,-3.11,-3.11,0,*79
1494162337.98,37632,16.56,73034.5,4.97,-1.79,-1.87,0,*75
1494162339.25,37633,16.5,73032.5,4.97,-1.39,-1.39,0,*75
1494162340.44,37634,16.5,73038.8,4.95,-0.81,-0.77,0,*79
1494162341.65,37635,16.5,73038.8,4.97,-0.69,-0.77,0,*7C
1494162342.85,37636,16.5,73034.0,4.97,-0.65,-0.53,0,*75
1494162344.05,37637,16.56,73036.5,4.97,-0.69,-0.65,0,*7D
1494162345.26,37638,16.56,73036.8,4.97,-0.19,-0.19,0,*7E
1494162346.51,37639,16.56,73034.5,4.99,-1.39,-1.47,0,*78
1494162347.73,37640,16.5,73028.0,4.97,-1.33,-1.33,0,*71
1494162348.94,37641,16.56,73036.8,4.97,-0.53,-0.41,0,*73
1494162350.16,37642,16.56,73034.5,4.97,-0.29,-0.27,0,*7D
1494162351.38,37643,16.5,73032.8,4.97,-0.41,-0.37,0,*73
1494162352.57,37644,16.5,73038.3,4.99,-0.41,-0.41,0,*7B
1494162353.78,37645,16.5,73038.0,4.99,-0.23,-0.15,0,*7F
1494162355.03,37646,16.56,73038.3,4.99,-1.35,-1.35,0,*79
1494162356.21,37647,16.56,73036.5,4.99,-0.73,-0.65,0,*7F
1494162357.41,37648,16.56,73040.5,5.01,-0.37,-0.29,0,*78
1494162358.64,37649,16.56,73034.3,5.01,-0.33,-0.23,0,*77
1494162359.84,37650,16.5,73028.8,5.01,-0.37,-0.33,0,*7A
1494162361.07,37651,16.56,73036.8,5.01,-0.29,-0.23,0,*75
1494162362.3,37652,16.56,73034.3,5.01,-0.23,-0.11,0,*7D
1494162363.49,37653,16.5,73034.5,5.07,-0.19,-0.15,0,*77
1494162364.66,37654,16.56,73036.3,5.07,-0.33,-0.29,0,*77
1494162365.84,37655,16.5,73036.3,5.07,-0.45,-0.45,0,*7D
1494162367.03,37656,16.56,73042.5,5.03,0.05,0.17,0,*49
1494162368.23,37657,16.5,73040.5,5.09,-0.07,-0.07,0,*71
1494162369.41,37658,16.5,73040.0,5.07,-0.41,-0.45,0,*74
1494162370.62,37659,16.56,73042.8,5.09,-0.19,-0.19,0,*7F
1494162371.79,37660,16.5,73040.3,5.07,0.05,0.05,0,*7B
1494162372.98,37661,16.5,73040.0,5.09,-0.03,-0.03,0,*74
1494162374.18,37662,16.56,73042.0,5.09,-0.03,-0.03,0,*77
1494162375.36,37663,16.5,73036.0,5.11,0.09,0.13,0,*44
1494162376.6,37664,16.5,73040.3,5.13,0.47,0.41,0,*7C
1494162377.83,37665,16.56,73040.0,5.13,0.29,0.17,0,*76
1494162379.06,37666,16.5,73036.3,5.13,0.37,0.29,0,*77
1494162380.28,37667,16.5,73034.5,5.15,0.51,0.51,0,*7F
1494162381.49,37668,16.56,73042.8,5.15,-0.23,-0.33,0,*71
1494162382.67,37669,16.5,73036.5,5.15,0.13,0.05,0,*46
1494162383.91,37670,16.5,73036.8,5.17,0.29,0.33,0,*70
1494162385.1,37671,16.56,73044.8,5.17,0.05,-0.07,0,*55
1494162386.3,37672,16.56,73040.5,5.17,-0.65,-0.81,0,*73
1494162387.52,37673,16.56,73036.5,5.17,-2.19,-2.31,0,*72
1494162388.75,37674,16.56,73038.5,5.15,-0.97,-1.09,0,*4B
1494162389.98,37675,16.5,73038.8,5.17,-0.23,-0.29,0,*74
1494162391.16,37676,16.56,73036.0,5.15,0.13,0.01,0,*4C
1494162392.35,37677,16.56,73038.8,5.17,0.05,-0.03,0,*57
1494162393.53,37678,16.56,73046.0,5.19,-0.33,-0.41,0,*78
1494162394.71,37679,16.56,73044.0,5.19,-0.45,-0.53,0,*7B
1494162395.89,37680,16.56,73044.3,5.19,-0.33,-0.33,0,*7A
1494162397.13,37681,16.56,73044.5,5.21,0.21,0.33,0,*73
1494162398.35,37682,16.56,73038.8,5.21,-0.27,-0.15,0,*72
1494162399.54,37683,16.56,73038.8,5.21,-0.03,0.01,0,*5D
1494162400.77,37684,16.56,73034.5,5.21,-1.51,-1.35,0,*77
1494162401.99,37685,16.56,73038.0,5.21,-0.85,-0.65,0,*7A
1494162403.2,37686,16.56,73036.0,5.21,-0.65,-0.49,0,*79
1494162404.37,37687,16.5,73036.5,5.23,-0.61,-0.61,0,*74
1494162405.56,37688,16.56,73038.0,5.21,-0.65,-0.61,0,*7D
1494162406.8,37689,16.5,73028.8,5.23,-1.13,-1.01,0,*79
1494162407.99,37690,16.56,73036.3,5.21,-0.37,-0.29,0,*7F
1494162409.17,37691,16.5,73036.5,5.21,0.01,0.09,0,*79
1494162410.35,37692,16.56,73042.0,5.23,-0.49,-0.49,0,*70
1494162411.57,37693,16.5,73036.0,5.23,-0.89,-0.93,0,*7A
1494162412.8,37694,16.56,73040.8,5.21,-0.37,-0.27,0,*75
1494162414.0,37695,16.56,73042.0,5.21,-0.77,-0.77,0,*75
1494162415.25,37696,16.56,73048.3,5.21,-0.93,-1.01,0,*4C
1494162416.45,37697,16.56,73048.3,5.21,-0.49,-0.41,0,*7F
1494162417.64,37698,16.56,73046.5,5.19,-0.81,-0.77,0,*7A
1494162418.85,37699,16.56,73044.8,5.19,-0.23,-0.15,0,*77
1494162420.08,37700,16.56,73044.8,5.21,0.21,0.13,0,*79
1494162421.28,37701,16.56,73042.3,5.21,-0.15,-0.03,0,*4E
1494162422.45,37702,16.5,73040.3,5.23,-0.61,-0.49,0,*72
1494162423.65,37703,16.56,73048.0,5.23,-0.29,-0.27,0,*77
1494162424.84,37704,16.56,73044.3,5.23,-0.41,-0.41,0,*7E
1494162426.05,37705,16.5,73036.8,5.25,-0.23,-0.15,0,*7C
1494162427.28,37706,16.56,73042.8,5.25,-0.27,-0.23,0,*7E
1494162428.44,37707,16.56,73042.0,5.23,0.09,0.09,0,*7D
1494162429.64,37708,16.56,73040.3,5.25,-0.33,-0.23,0,*75
1494162430.82,37709,16.56,73042.0,5.23,-0.77,-0.49,0,*7E
1494162431.98,37710,16.5,73036.0,5.25,-0.07,0.01,0,*56
1494162433.17,37711,16.56,73042.8,5.25,0.01,0.17,0,*4B
1494162434.38,37712,16.56,73042.3,5.25,-0.23,-0.11,0,*7E
1494162435.59,37713,16.5,73038.3,5.25,0.37,0.51,0,*7E
1494162436.82,37714,16.5,73042.0,5.31,0.63,0.67,0,*78
1494162438.06,37715,16.5,73042.8,5.31,0.63,0.75,0,*7A
1494162439.25,37716,16.56,73040.0,5.33,0.83,0.97,0,*79
1494162440.46,37717,16.56,73040.0,5.35,0.43,0.55,0,*7C
1494162441.68,37718,16.5,73040.0,5.37,0.59,0.75,0,*78
1494162442.89,37719,16.56,73042.8,5.41,0.75,0.91,0,*7C
1494162444.11,37720,16.56,73042.8,5.41,0.55,0.63,0,*79
1494162445.32,37721,16.56,73040.0,5.41,0.21,0.33,0,*7E
1494162446.52,37722,16.56,73042.5,5.41,0.75,0.95,0,*70
1494162447.74,37723,16.5,73040.0,5.43,0.83,1.05,0,*42
1494162449.0,37724,16.5,73038.0,5.43,1.09,1.21,0,*70
1494162450.21,37725,16.56,73042.5,5.49,0.59,0.71,0,*7B
1494162451.4,37726,16.56,73038.5,5.49,0.87,1.01,0,*4D
1494162452.61,37727,16.5,73036.8,5.49,0.25,0.37,0,*70
1494162453.82,37728,16.56,73042.5,5.51,0.75,0.97,0,*79
1494162455.03,37729,16.56,73038.8,5.53,0.95,0.91,0,*72
1494162456.24,37730,16.5,73042.0,5.53,0.59,0.67,0,*73
1494162457.47,37731,16.5,73038.0,5.57,0.47,0.37,0,*7C
1494162458.67,37732,16.56,73042.8,5.59,1.05,0.95,0,*4E
1494162459.9,37733,16.56,73042.5,5.61,1.13,1.01,0,*7F
1494162461.12,37734,16.5,73038.8,5.63,1.09,0.79,0,*4F
1494162462.32,37735,16.56,73040.0,5.63,1.01,0.51,0,*4C
1494162463.51,37736,16.5,73038.5,5.67,1.05,0.71,0,*4D
1494162464.76,37737,16.5,73042.3,5.69,1.17,0.71,0,*41
1494162466.01,37738,16.56,73042.8,5.73,1.21,0.51,0,*42
1494162467.23,37739,16.56,73042.3,5.75,0.79,0.25,0,*7A
1494162468.42,37740,16.56,73042.8,5.75,1.01,0.63,0,*48
1494162469.66,37741,16.56,73042.8,5.77,0.83,0.47,0,*76
1494162470.9,37742,16.5,73042.8,5.81,0.95,0.75,0,*7A
1494162472.12,37743,16.5,73042.0,5.85,1.01,0.91,0,*49
1494162473.34,37744,16.56,73038.5,5.85,1.09,1.01,0,*7E
1494162474.55,37745,16.56,73040.8,5.91,1.05,1.17,0,*71
1494162475.8,37746,16.5,73038.8,5.93,0.59,0.83,0,*74
1494162477.02,37747,16.56,73040.3,5.91,0.59,0.87,0,*73
1494162478.23,37748,16.5,73038.8,5.95,-0.11,0.37,0,*52
1494162479.48,37749,16.56,73040.0,5.93,0.37,0.63,0,*7D
1494162480.67,37750,16.56,73040.3,5.95,0.01,0.47,0,*40
1494162481.9,37751,16.56,73042.3,5.93,-0.19,0.25,0,*57
1494162483.13,37752,16.56,73040.3,5.95,0.41,0.87,0,*7A
1494162484.37,37753,16.5,73036.8,5.97,0.29,0.51,0,*7C
1494162485.56,37754,16.56,73040.5,5.95,-0.45,-0.07,0,*40
1494162486.76,37755,16.56,73042.0,5.95,0.05,0.51,0,*46
1494162488.0,37756,16.56,73040.3,5.97,0.37,0.67,0,*73
1494162489.2,37757,16.5,73042.3,5.99,-0.03,0.29,0,*6C
1494162490.42,37758,16.56,73040.3,5.97,-0.27,0.01,0,*61
1494162491.67,37759,16.56,73042.5,5.97,0.41,0.47,0,*7F
1494162492.89,37760,16.56,73046.8,5.99,0.29,0.33,0,*76
1494162494.11,37761,16.56,73042.5,5.99,0.71,0.79,0,*74
1494162495.33,37762,16.56,73040.3,5.99,0.71,0.71,0,*7F
1494162496.56,37763,16.56,73040.0,5.99,0.83,0.83,0,*7E
1494162497.8,37764,16.56,73042.8,6.01,1.17,1.05,0,*78
1494162499.05,37765,16.5,73038.8,6.01,0.71,0.47,0,*7F
1494162500.27,37766,16.5,73038.5,6.03,0.95,0.75,0,*75
1494162501.49,37767,16.56,73042.5,6.03,0.67,0.37,0,*7F
1494162502.74,37768,16.56,73042.0,6.05,0.79,0.75,0,*7F
1494162503.94,37769,16.5,73038.5,6.07,0.75,0.43,0,*75
1494162505.19,37770,16.56,73040.8,6.05,0.71,0.51,0,*78
1494162506.41,37771,16.56,73042.8,6.09,0.43,0.51,0,*74
1494162507.65,37772,16.56,73040.8,6.09,-0.11,-0.23,0,*75
1494162508.85,37773,16.56,73042.8,6.09,0.05,-0.07,0,*5A
1494162510.09,37774,16.5,73036.8,6.13,0.21,0.13,0,*78
1494162511.29,37775,16.5,73036.8,6.09,0.05,0.09,0,*7F
1494162512.53,37776,16.5,73040.5,6.13,0.13,0.21,0,*7A
1494162513.77,37777,16.56,73044.5,6.09,0.51,0.67,0,*74
1494162515.01,37778,16.5,73040.3,6.13,0.33,0.37,0,*71
1494162516.25,37779,16.5,73040.0,6.13,0.13,0.33,0,*76
1494162517.48,37780,16.56,73040.3,6.13,0.67,0.79,0,*7D
1494162518.72,37781,16.56,73044.0,6.13,0.59,0.71,0,*79
1494162519.91,37782,16.56,73044.5,6.15,0.43,0.37,0,*75
1494162521.1,37783,16.56,73046.3,6.15,0.33,0.43,0,*70
1494162522.29,37784,16.56,73046.8,6.15,0.09,0.13,0,*4B